"Period start","avg(HW err(1)/warn(2) (#))","avg(Visibility (m))","avg(Weather code (#))","avg(Precip intensity (mm/h))","min(HW err(1)/warn(2) (#))","max(HW err(1)/warn(2) (#))","std(HW err(1)/warn(2) (#))","med(HW err(1)/warn(2) (#))","min(Visibility (m))","max(Visibility (m))","std(Visibility (m))","med(Visibility (m))","min(Weather code (#))","max(Weather code (#))","std(Weather code (#))","med(Weather code (#))","min(Precip intensity (mm/h))","max(Precip intensity (mm/h))","std(Precip intensity (mm/h))","med(Precip intensity (mm/h))"
2014-07-11 00:00:00,0,40720,0,0.00,0,0,0,0,31368,50000,6104,41290,0,0,0,0,0.00,0.00,0.00,0.00
2014-07-11 00:10:00,0,44500,0,0.00,0,0,0,0,34709,50000,6068,46974,0,0,0,0,0.00,0.00,0.00,0.00
2014-07-11 00:20:00,0,45600,0,0.00,0,0,0,0,35672,50000,5450,49418,0,0,0,0,0.00,0.00,0.00,0.00
2014-07-11 00:30:00,0,42623,0,0.00,0,0,0,0,37306,50000,3525,42631,0,0,0,0,0.00,0.00,0.00,0.00
2014-07-11 00:40:00,0,42260,0,0.00,0,0,0,0,21619,50000,8991,45162,0,0,0,0,0.00,0.00,0.00,0.00
2014-07-11 00:50:00,0,39430,0,0.00,0,0,0,0,24747,50000,8304,41256,0,0,0,0,0.00,0.00,0.00,0.00
2014-07-11 01:00:00,0,47161,0,0.00,0,0,0,0,39397,50000,4186,50000,0,0,0,0,0.00,0.00,0.00,0.00
2014-07-11 01:10:00,0,38962,0,0.00,0,0,0,0,23479,50000,8507,43007,0,0,0,0,0.00,0.00,0.00,0.00
2014-07-11 01:20:00,0,45624,0,0.00,0,0,0,0,32546,50000,6344,50000,0,0,0,0,0.00,0.00,0.00,0.00
2014-07-11 01:30:00,0,48216,0,0.00,0,0,0,0,40418,50000,3107,50000,0,0,0,0,0.00,0.00,0.00,0.00
2014-07-11 01:40:00,0,49982,0,0.00,0,0,0,0,49818,50000,55,50000,0,0,0,0,0.00,0.00,0.00,0.00
2014-07-11 01:50:00,0,48845,0,0.00,0,0,0,0,42213,50000,2479,50000,0,0,0,0,0.00,0.00,0.00,0.00
2014-07-11 02:00:00,0,43147,0,0.00,0,0,0,0,32349,50000,6601,44026,0,0,0,0,0.00,0.00,0.00,0.00
2014-07-11 02:10:00,0,41897,0,0.00,0,0,0,0,31580,47690,4632,42472,0,0,0,0,0.00,0.00,0.00,0.00
2014-07-11 02:20:00,0,38125,0,0.00,0,0,0,0,23624,50000,8760,39457,0,0,0,0,0.00,0.00,0.00,0.00
2014-07-11 02:30:00,0,40126,0,0.00,0,0,0,0,28911,50000,6942,40601,0,0,0,0,0.00,0.00,0.00,0.00
2014-07-11 02:40:00,0,45868,0,0.00,0,0,0,0,39150,50000,4166,47345,0,0,0,0,0.00,0.00,0.00,0.00
2014-07-11 02:50:00,0,49632,0,0.00,0,0,0,0,47629,50000,774,50000,0,0,0,0,0.00,0.00,0.00,0.00
2014-07-11 03:00:00,0,46264,0,0.00,0,0,0,0,37604,50000,4808,50000,0,0,0,0,0.00,0.00,0.00,0.00
2014-07-11 03:10:00,0,39743,0,0.00,0,0,0,0,20158,50000,9387,41291,0,0,0,0,0.00,0.00,0.00,0.00
2014-07-11 03:20:00,0,43731,0,0.00,0,0,0,0,34445,50000,5948,44332,0,0,0,0,0.00,0.00,0.00,0.00
2014-07-11 03:30:00,0,42720,0,0.00,0,0,0,0,28355,50000,7068,44335,0,0,0,0,0.00,0.00,0.00,0.00
2014-07-11 03:40:00,0,44568,0,0.00,0,0,0,0,31577,50000,5124,45315,0,0,0,0,0.00,0.00,0.00,0.00
2014-07-11 03:50:00,0,46834,0,0.00,0,0,0,0,37890,50000,4269,48996,0,0,0,0,0.00,0.00,0.00,0.00
2014-07-11 04:00:00,0,42674,0,0.00,0,0,0,0,31526,50000,6372,42292,0,0,0,0,0.00,0.00,0.00,0.00
2014-07-11 04:10:00,0,47814,0,0.00,0,0,0,0,38680,50000,3449,49692,0,0,0,0,0.00,0.00,0.00,0.00
2014-07-11 04:20:00,0,49022,0,0.00,0,0,0,0,41159,50000,2636,50000,0,0,0,0,0.00,0.00,0.00,0.00
2014-07-11 04:30:00,0,46554,0,0.00,0,0,0,0,38279,50000,3966,48216,0,0,0,0,0.00,0.00,0.00,0.00
2014-07-11 04:40:00,0,46832,0,0.00,0,0,0,0,38332,50000,4033,49340,0,0,0,0,0.00,0.00,0.00,0.00
2014-07-11 04:50:00,0,48150,0,0.00,0,0,0,0,43433,50000,2188,49070,0,0,0,0,0.00,0.00,0.00,0.00
2014-07-11 05:00:00,0,46551,0,0.00,0,0,0,0,40444,50000,3507,48088,0,0,0,0,0.00,0.00,0.00,0.00
2014-07-11 05:10:00,0,45784,0,0.00,0,0,0,0,35552,50000,5494,49866,0,0,0,0,0.00,0.00,0.00,0.00
2014-07-11 05:20:00,0,43441,0,0.00,0,0,0,0,34431,50000,4874,43369,0,0,0,0,0.00,0.00,0.00,0.00
2014-07-11 05:30:00,0,48039,0,0.00,0,0,0,0,33676,50000,4831,50000,0,0,0,0,0.00,0.00,0.00,0.00
2014-07-11 05:40:00,0,47120,0,0.00,0,0,0,0,42199,50000,2801,47996,0,0,0,0,0.00,0.00,0.00,0.00
2014-07-11 05:50:00,0,46493,0,0.00,0,0,0,0,36423,50000,4555,48204,0,0,0,0,0.00,0.00,0.00,0.00
2014-07-11 06:00:00,0,46627,0,0.00,0,0,0,0,40699,50000,3690,47838,0,0,0,0,0.00,0.00,0.00,0.00
2014-07-11 06:10:00,0,42852,0,0.00,0,0,0,0,32914,50000,6376,43234,0,0,0,0,0.00,0.00,0.00,0.00
2014-07-11 06:20:00,0,49154,0,0.00,0,0,0,0,44109,50000,1762,50000,0,0,0,0,0.00,0.00,0.00,0.00
2014-07-11 06:30:00,0,48978,0,0.00,0,0,0,0,45042,50000,1617,50000,0,0,0,0,0.00,0.00,0.00,0.00
2014-07-11 06:40:00,0,44926,0,0.00,0,0,0,0,36171,50000,5848,47622,0,0,0,0,0.00,0.00,0.00,0.00
2014-07-11 06:50:00,0,47142,0,0.00,0,0,0,0,39163,50000,3680,49591,0,0,0,0,0.00,0.00,0.00,0.00
2014-07-11 07:00:00,0,50000,0,0.00,0,0,0,0,50000,50000,0,50000,0,0,0,0,0.00,0.00,0.00,0.00
2014-07-11 07:10:00,0,50000,0,0.00,0,0,0,0,50000,50000,0,50000,0,0,0,0,0.00,0.00,0.00,0.00
2014-07-11 07:20:00,0,49736,0,0.00,0,0,0,0,47702,50000,686,50000,0,0,0,0,0.00,0.00,0.00,0.00
2014-07-11 07:30:00,0,48044,0,0.00,0,0,0,0,44235,50000,2031,48124,0,0,0,0,0.00,0.00,0.00,0.00
2014-07-11 07:40:00,0,48890,0,0.00,0,0,0,0,45336,50000,1477,49770,0,0,0,0,0.00,0.00,0.00,0.00
2014-07-11 07:50:00,0,49953,0,0.00,0,0,0,0,49672,50000,103,50000,0,0,0,0,0.00,0.00,0.00,0.00
2014-07-11 08:00:00,0,48842,0,0.00,0,0,0,0,43042,50000,2165,50000,0,0,0,0,0.00,0.00,0.00,0.00
2014-07-11 08:10:00,0,49662,0,0.00,0,0,0,0,46617,50000,1015,50000,0,0,0,0,0.00,0.00,0.00,0.00
2014-07-11 08:20:00,0,48946,0,0.00,0,0,0,0,42271,50000,2378,50000,0,0,0,0,0.00,0.00,0.00,0.00
2014-07-11 08:30:00,0,43634,0,0.00,0,0,0,0,16480,50000,10426,49503,0,0,0,0,0.00,0.00,0.00,0.00
2014-07-11 08:40:00,0,49810,0,0.00,0,0,0,0,48098,50000,571,50000,0,0,0,0,0.00,0.00,0.00,0.00
2014-07-11 08:50:00,0,49393,0,0.00,0,0,0,0,45766,50000,1327,50000,0,0,0,0,0.00,0.00,0.00,0.00
2014-07-11 09:00:00,0,49891,0,0.00,0,0,0,0,48914,50000,326,50000,0,0,0,0,0.00,0.00,0.00,0.00
2014-07-11 09:10:00,0,42141,0,0.00,0,0,0,0,19553,50000,10974,47862,0,0,0,0,0.00,0.00,0.00,0.00
2014-07-11 09:20:00,0,49430,0,0.00,0,0,0,0,45384,50000,1368,50000,0,0,0,0,0.00,0.00,0.00,0.00
2014-07-11 09:30:00,0,43736,0,0.00,0,0,0,0,19459,50000,9731,49982,0,0,0,0,0.00,0.00,0.00,0.00
2014-07-11 09:40:00,0,49509,0,0.00,0,0,0,0,45086,50000,1474,50000,0,0,0,0,0.00,0.00,0.00,0.00
2014-07-11 09:50:00,0,50000,0,0.00,0,0,0,0,50000,50000,0,50000,0,0,0,0,0.00,0.00,0.00,0.00
2014-07-11 10:00:00,0,50000,0,0.00,0,0,0,0,50000,50000,0,50000,0,0,0,0,0.00,0.00,0.00,0.00
2014-07-11 10:10:00,0,49946,0,0.00,0,0,0,0,49455,50000,164,50000,0,0,0,0,0.00,0.00,0.00,0.00
2014-07-11 10:20:00,0,50000,0,0.00,0,0,0,0,50000,50000,0,50000,0,0,0,0,0.00,0.00,0.00,0.00
2014-07-11 10:30:00,0,49760,0,0.00,0,0,0,0,47994,50000,600,50000,0,0,0,0,0.00,0.00,0.00,0.00
2014-07-11 10:40:00,0,49450,0,0.00,0,0,0,0,44496,50000,1651,50000,0,0,0,0,0.00,0.00,0.00,0.00
2014-07-11 10:50:00,0,50000,0,0.00,0,0,0,0,50000,50000,0,50000,0,0,0,0,0.00,0.00,0.00,0.00
2014-07-11 11:00:00,0,49786,0,0.00,0,0,0,0,48111,50000,563,50000,0,0,0,0,0.00,0.00,0.00,0.00
2014-07-11 11:10:00,0,47826,0,0.00,0,0,0,0,34480,50000,4819,50000,0,0,0,0,0.00,0.00,0.00,0.00
2014-07-11 11:20:00,0,46997,0,0.00,0,0,0,0,35665,50000,5425,50000,0,0,0,0,0.00,0.00,0.00,0.00
2014-07-11 11:30:00,0,49925,0,0.00,0,0,0,0,49248,50000,226,50000,0,0,0,0,0.00,0.00,0.00,0.00
2014-07-11 11:40:00,0,50000,0,0.00,0,0,0,0,50000,50000,0,50000,0,0,0,0,0.00,0.00,0.00,0.00
2014-07-11 11:50:00,0,49943,0,0.00,0,0,0,0,49433,50000,170,50000,0,0,0,0,0.00,0.00,0.00,0.00
2014-07-11 12:00:00,0,50000,0,0.00,0,0,0,0,50000,50000,0,50000,0,0,0,0,0.00,0.00,0.00,0.00
2014-07-11 12:10:00,0,49911,0,0.00,0,0,0,0,49327,50000,210,50000,0,0,0,0,0.00,0.00,0.00,0.00
2014-07-11 12:20:00,0,49819,0,0.00,0,0,0,0,48372,50000,512,50000,0,0,0,0,0.00,0.00,0.00,0.00
2014-07-11 12:30:00,0,50000,0,0.00,0,0,0,0,50000,50000,0,50000,0,0,0,0,0.00,0.00,0.00,0.00
2014-07-11 12:40:00,0,49945,0,0.00,0,0,0,0,49449,50000,165,50000,0,0,0,0,0.00,0.00,0.00,0.00
2014-07-11 12:50:00,0,50000,0,0.00,0,0,0,0,50000,50000,0,50000,0,0,0,0,0.00,0.00,0.00,0.00
2014-07-11 13:00:00,0,49026,0,0.00,0,0,0,0,41232,50000,2756,50000,0,0,0,0,0.00,0.00,0.00,0.00
2014-07-11 13:10:00,0,49176,0,0.00,0,0,0,0,42740,50000,2157,50000,0,0,0,0,0.00,0.00,0.00,0.00
2014-07-11 13:20:00,0,50000,0,0.00,0,0,0,0,50000,50000,0,50000,0,0,0,0,0.00,0.00,0.00,0.00
2014-07-11 13:30:00,0,50000,0,0.00,0,0,0,0,50000,50000,0,50000,0,0,0,0,0.00,0.00,0.00,0.00
2014-07-11 13:40:00,0,49824,0,0.00,0,0,0,0,48245,50000,526,50000,0,0,0,0,0.00,0.00,0.00,0.00
2014-07-11 13:50:00,0,49663,0,0.00,0,0,0,0,46631,50000,1011,50000,0,0,0,0,0.00,0.00,0.00,0.00
2014-07-11 14:00:00,0,49916,0,0.00,0,0,0,0,49157,50000,253,50000,0,0,0,0,0.00,0.00,0.00,0.00
2014-07-11 14:10:00,0,50000,0,0.00,0,0,0,0,50000,50000,0,50000,0,0,0,0,0.00,0.00,0.00,0.00
2014-07-11 14:20:00,0,50000,0,0.00,0,0,0,0,50000,50000,0,50000,0,0,0,0,0.00,0.00,0.00,0.00
2014-07-11 14:30:00,0,49420,0,0.00,0,0,0,0,44205,50000,1738,50000,0,0,0,0,0.00,0.00,0.00,0.00
2014-07-11 14:40:00,0,50000,0,0.00,0,0,0,0,50000,50000,0,50000,0,0,0,0,0.00,0.00,0.00,0.00
2014-07-11 14:50:00,0,50000,0,0.00,0,0,0,0,50000,50000,0,50000,0,0,0,0,0.00,0.00,0.00,0.00
2014-07-11 15:00:00,0,50000,0,0.00,0,0,0,0,50000,50000,0,50000,0,0,0,0,0.00,0.00,0.00,0.00
2014-07-11 15:10:00,0,50000,0,0.00,0,0,0,0,50000,50000,0,50000,0,0,0,0,0.00,0.00,0.00,0.00
2014-07-11 15:20:00,0,49848,0,0.00,0,0,0,0,48482,50000,455,50000,0,0,0,0,0.00,0.00,0.00,0.00
2014-07-11 15:30:00,0,50000,0,0.00,0,0,0,0,50000,50000,0,50000,0,0,0,0,0.00,0.00,0.00,0.00
2014-07-11 15:40:00,0,50000,0,0.00,0,0,0,0,50000,50000,0,50000,0,0,0,0,0.00,0.00,0.00,0.00
2014-07-11 15:50:00,0,49747,0,0.00,0,0,0,0,47468,50000,760,50000,0,0,0,0,0.00,0.00,0.00,0.00
2014-07-11 16:00:00,0,49864,0,0.00,0,0,0,0,48644,50000,407,50000,0,0,0,0,0.00,0.00,0.00,0.00
2014-07-11 16:10:00,0,49860,0,0.00,0,0,0,0,48602,50000,419,50000,0,0,0,0,0.00,0.00,0.00,0.00
2014-07-11 16:20:00,0,49798,0,0.00,0,0,0,0,47976,50000,607,50000,0,0,0,0,0.00,0.00,0.00,0.00
2014-07-11 16:30:00,0,50000,0,0.00,0,0,0,0,50000,50000,0,50000,0,0,0,0,0.00,0.00,0.00,0.00
2014-07-11 16:40:00,0,50000,0,0.00,0,0,0,0,50000,50000,0,50000,0,0,0,0,0.00,0.00,0.00,0.00
2014-07-11 16:50:00,0,50000,0,0.00,0,0,0,0,50000,50000,0,50000,0,0,0,0,0.00,0.00,0.00,0.00
2014-07-11 17:00:00,0,49961,0,0.00,0,0,0,0,49606,50000,118,50000,0,0,0,0,0.00,0.00,0.00,0.00
2014-07-11 17:10:00,0,49991,0,0.00,0,0,0,0,49906,50000,28,50000,0,0,0,0,0.00,0.00,0.00,0.00
2014-07-11 17:20:00,0,50000,0,0.00,0,0,0,0,50000,50000,0,50000,0,0,0,0,0.00,0.00,0.00,0.00
2014-07-11 17:30:00,0,50000,0,0.00,0,0,0,0,50000,50000,0,50000,0,0,0,0,0.00,0.00,0.00,0.00
2014-07-11 17:40:00,0,50000,0,0.00,0,0,0,0,50000,50000,0,50000,0,0,0,0,0.00,0.00,0.00,0.00
2014-07-11 17:50:00,0,49999,0,0.00,0,0,0,0,49988,50000,4,50000,0,0,0,0,0.00,0.00,0.00,0.00
2014-07-11 18:00:00,0,49976,0,0.00,0,0,0,0,49756,50000,73,50000,0,0,0,0,0.00,0.00,0.00,0.00
2014-07-11 18:10:00,0,50000,0,0.00,0,0,0,0,50000,50000,0,50000,0,0,0,0,0.00,0.00,0.00,0.00
2014-07-11 18:20:00,0,50000,0,0.00,0,0,0,0,50000,50000,0,50000,0,0,0,0,0.00,0.00,0.00,0.00
2014-07-11 18:30:00,0,50000,0,0.00,0,0,0,0,50000,50000,0,50000,0,0,0,0,0.00,0.00,0.00,0.00
2014-07-11 18:40:00,0,50000,0,0.00,0,0,0,0,50000,50000,0,50000,0,0,0,0,0.00,0.00,0.00,0.00
2014-07-11 18:50:00,0,50000,0,0.00,0,0,0,0,50000,50000,0,50000,0,0,0,0,0.00,0.00,0.00,0.00
2014-07-11 19:00:00,0,49744,0,0.00,0,0,0,0,47720,50000,680,50000,0,0,0,0,0.00,0.00,0.00,0.00
2014-07-11 19:10:00,0,50000,0,0.00,0,0,0,0,50000,50000,0,50000,0,0,0,0,0.00,0.00,0.00,0.00
2014-07-11 19:20:00,0,50000,0,0.00,0,0,0,0,50000,50000,0,50000,0,0,0,0,0.00,0.00,0.00,0.00
2014-07-11 19:30:00,0,50000,0,0.00,0,0,0,0,50000,50000,0,50000,0,0,0,0,0.00,0.00,0.00,0.00
2014-07-11 19:40:00,0,50000,0,0.00,0,0,0,0,50000,50000,0,50000,0,0,0,0,0.00,0.00,0.00,0.00
2014-07-11 19:50:00,0,50000,0,0.00,0,0,0,0,50000,50000,0,50000,0,0,0,0,0.00,0.00,0.00,0.00
2014-07-11 20:00:00,0,49882,0,0.00,0,0,0,0,48824,50000,353,50000,0,0,0,0,0.00,0.00,0.00,0.00
2014-07-11 20:10:00,0,49906,0,0.00,0,0,0,0,49058,50000,283,50000,0,0,0,0,0.00,0.00,0.00,0.00
2014-07-11 20:20:00,0,49520,0,0.00,0,0,0,0,46107,50000,1170,50000,0,0,0,0,0.00,0.00,0.00,0.00
2014-07-11 20:30:00,0,50000,0,0.00,0,0,0,0,50000,50000,0,50000,0,0,0,0,0.00,0.00,0.00,0.00
2014-07-11 20:40:00,0,50000,0,0.00,0,0,0,0,50000,50000,0,50000,0,0,0,0,0.00,0.00,0.00,0.00
2014-07-11 20:50:00,0,49856,0,0.00,0,0,0,0,48558,50000,433,50000,0,0,0,0,0.00,0.00,0.00,0.00
2014-07-11 21:00:00,0,50000,0,0.00,0,0,0,0,50000,50000,0,50000,0,0,0,0,0.00,0.00,0.00,0.00
2014-07-11 21:10:00,0,49645,0,0.00,0,0,0,0,46959,50000,908,50000,0,0,0,0,0.00,0.00,0.00,0.00
2014-07-11 21:20:00,0,50000,0,0.00,0,0,0,0,50000,50000,0,50000,0,0,0,0,0.00,0.00,0.00,0.00
2014-07-11 21:30:00,0,50000,0,0.00,0,0,0,0,50000,50000,0,50000,0,0,0,0,0.00,0.00,0.00,0.00
2014-07-11 21:40:00,0,49187,0,0.00,0,0,0,0,46773,50000,1259,50000,0,0,0,0,0.00,0.00,0.00,0.00
2014-07-11 21:50:00,0,49986,0,0.00,0,0,0,0,49857,50000,43,50000,0,0,0,0,0.00,0.00,0.00,0.00
2014-07-11 22:00:00,0,50000,0,0.00,0,0,0,0,50000,50000,0,50000,0,0,0,0,0.00,0.00,0.00,0.00
2014-07-11 22:10:00,0,49943,0,0.00,0,0,0,0,49434,50000,170,50000,0,0,0,0,0.00,0.00,0.00,0.00
2014-07-11 22:20:00,0,50000,0,0.00,0,0,0,0,49995,50000,2,50000,0,0,0,0,0.00,0.00,0.00,0.00
2014-07-11 22:30:00,0,49944,0,0.00,0,0,0,0,49435,50000,170,50000,0,0,0,0,0.00,0.00,0.00,0.00
2014-07-11 22:40:00,0,50000,0,0.00,0,0,0,0,50000,50000,0,50000,0,0,0,0,0.00,0.00,0.00,0.00
2014-07-11 22:50:00,0,50000,0,0.00,0,0,0,0,50000,50000,0,50000,0,0,0,0,0.00,0.00,0.00,0.00
2014-07-11 23:00:00,0,50000,0,0.00,0,0,0,0,50000,50000,0,50000,0,0,0,0,0.00,0.00,0.00,0.00
2014-07-11 23:10:00,0,47240,0,0.00,0,0,0,0,32468,50000,5547,50000,0,0,0,0,0.00,0.00,0.00,0.00
2014-07-11 23:20:00,0,49827,0,0.00,0,0,0,0,48267,50000,520,50000,0,0,0,0,0.00,0.00,0.00,0.00
2014-07-11 23:30:00,0,45972,53,0.17,0,0,0,0,37706,50000,4282,47140,51,61,4,51,0.05,0.35,0.08,0.15
2014-07-11 23:40:00,0,47048,31,0.04,0,0,0,0,41457,50000,2915,47278,0,51,25,51,0.00,0.15,0.05,0.03
2014-07-11 23:50:00,0,48522,0,0.00,0,0,0,0,43348,50000,2341,49891,0,0,0,0,0.00,0.00,0.00,0.00
